Location: Aubin
(50.3950°N, 1.9729°E)
Time: 10:06:24
(UTC+00:00)

Daily predictions for brighter satellites

Satellite Brightness Start Highest point End
(mag) Time Altitude Azimuth Time Altitude Azimuth Time Altitude Azimuth
Cosmos 1459 Rocket 4.2 16:29:47 10° S 16:36:05 85° W 16:42:31 10° N
COSMOS 2406 4.4 16:36:23 10° NNW 16:40:45 22° NE 16:45:06 10° E
Cosmos 2084 Rocket 3.4 16:37:26 10° SW 16:41:35 72° SE 16:45:47 10° NE
Cosmos 2100 Rocket 4.4 16:37:39 10° SSW 16:43:47 70° WNW 16:49:57 10° N
ATLAS CENTAUR R/B 2.3 16:40:55 10° WSW 16:44:05 33° NW 16:47:15 10° NNE
Cosmos 1441 Rocket 3.2 16:42:14 10° NNW 16:45:35 71° W 16:48:55 10° S
Cosmos 2221 Rocket 4.3 16:41:46 10° NNW 16:46:12 59° W 16:50:33 10° S
Cosmos 1833 Rocket 2.9 16:40:41 10° NNW 16:46:22 78° WSW 16:52:00 10° SSE
SAR-Lupe-4 3.9 16:43:21 10° SE 16:46:45 42° ENE 16:50:09 10° N
ARIANE 5 R/B 2.7 16:42:40 10° SE 16:47:27 49° ENE 16:52:16 10° N
Timation 1 Rocket 4.4 16:48:50 10° NNW 16:54:43 56° NE 17:00:35 10° SE
USA 215 3.4 16:48:27 10° SE 16:55:00 81° SSW 17:01:36 10° WNW
IRS-P3 4.4 16:53:11 10° SE 16:58:15 46° ENE 17:03:19 10° N
ATLAS 5 CENTAUR R/B 2.5 16:55:53 10° NW 17:00:07 57° SW 17:05:22 10° SSE
MOS 1 Rocket 3.8 16:56:28 10° SE 17:00:21 33° ENE 17:04:26 10° N
Cosmos 1484 Rocket 4.0 17:01:01 10° S 17:04:20 41° W 17:07:44 10° NNW
Iridium 4 Rocket 4.2 17:01:37 10° SSW 17:06:32 54° W 17:11:04 10° N
Resurs 01 Rocket 3.5 17:08:57 12° NE 17:08:57 12° NE 17:10:05 10° NNE
Cosmos 2233 Rocket 4.0 17:02:34 10° S 17:08:53 82° E 17:15:15 10° N
RESURS DK-1 2.2 17:04:55 10° NNW 17:08:55 63° NE 17:12:53 10° SE
Cosmos 1602 4.2 17:06:41 10° NNE 17:09:14 23° ENE 17:11:45 10° SE
Cosmos 407 Rocket 3.8 17:05:00 10° S 17:09:52 43° ESE 17:14:44 10° NE
Cosmos 1725 Rocket 4.3 17:03:39 10° SSW 17:09:55 72° WNW 17:16:15 10° N
Cosmos 2061 Rocket 4.0 17:05:07 10° S 17:11:24 78° E 17:17:39 10° NNE
ISS -2.8 17:12:07 10° SW 17:15:11 34° SSE 17:17:12 18° E
Geosat FO 4.4 17:12:43 10° SE 17:15:26 40° NE 17:18:10 10° NNW
Cosmos 1782 Rocket 3.7 17:11:12 10° SSW 17:15:38 82° W 17:20:05 10° N
CZ-2D R/B 2.6 17:13:26 10° SSE 17:16:34 75° ENE 17:19:45 10° N
Cosmos 1869 3.2 17:14:02 10° SSE 17:17:24 45° E 17:20:46 10° NNE
ERS-1 4.4 17:13:28 10° SSE 17:18:36 75° ENE 17:23:42 10° NNW
USA 281 4.3 17:15:06 14° E 17:19:04 24° NE 17:24:04 10° NNW
SPOT 1/Viking Rocket 3.9 17:14:35 10° SE 17:19:24 41° ENE 17:24:17 10° N
Cosmos 1300 Rocket 3.9 17:15:28 10° SSW 17:19:50 68° WNW 17:24:12 10° N
COSMO-SKYMED 1 3.8 17:21:26 18° ENE 17:22:20 20° E 17:25:23 10° SE
SJ-12 3.6 17:19:35 10° SSE 17:23:23 87° ENE 17:27:12 10° NNW
Cosmos 1464 Rocket 4.5 17:19:18 10° SSE 17:24:56 36° E 17:30:32 10° NNE
AQUARIUS 4.0 17:22:48 10° SSE 17:27:12 77° ENE 17:31:38 10° NNW
SL-12 R/B(2) 4.4 17:19:55 10° SSW 17:27:43 62° ESE 17:36:59 11° NE
Cosmos 540 Rocket 3.4 17:23:47 10° NNW 17:28:58 84° ENE 17:34:04 10° SSE
BREEZE-M DEB (TANK) 2.7 17:27:05 10° SW 17:29:29 45° SSE 17:32:21 20° E
Cosmos 1400 Rocket 3.9 17:28:27 10° SE 17:31:13 22° E 17:31:13 22° E
Cosmos 1975 Rocket 3.5 17:28:00 10° NNW 17:32:18 63° W 17:36:38 10° S
Spot 4 Rocket 4.2 17:28:21 10° SE 17:33:11 46° ENE 17:38:04 10° N
Cosmos 1763 Rocket 3.6 17:29:12 10° NNW 17:34:26 77° WSW 17:39:33 10° SSE
Cosmos 1812 2.2 17:33:58 10° S 17:36:45 44° E 17:37:34 33° NE
Cosmos 1140 Rocket 4.0 17:36:39 10° SW 17:41:46 60° WNW 17:46:52 10° NNE
Cosmos 2151 Rocket 4.0 17:37:53 10° SSE 17:42:01 39° E 17:45:29 14° NNE
Cosmos 2058 2.7 17:38:25 10° N 17:42:22 62° ENE 17:46:19 10° SSE
SMAP 4.2 17:38:51 10° S 17:43:20 47° W 17:47:52 10° NNW
Cosmos 44 Rocket 3.4 17:39:54 10° SSW 17:44:32 53° ESE 17:47:06 26° ENE
SKYMED 2 3.7 17:45:23 13° NNE 17:49:12 50° E 17:53:25 10° S
Cosmos 1943 Rocket 2.1 17:43:59 10° SSW 17:49:35 75° ESE 17:54:09 16° NNE
Helios 1A Rocket 3.7 17:51:57 25° SE 17:51:57 25° SE 17:53:51 10° SSE
Okean 1 Rocket 3.7 17:48:04 10° SSE 17:51:43 31° E 17:51:43 31° E
CZ-2D R/B 3.3 17:48:06 10° SSE 17:52:13 70° ENE 17:56:26 10° N
SJ-7 4.2 17:48:38 10° SSE 17:52:13 53° ENE 17:55:50 10° N
IRAS Rocket 4.2 17:47:12 10° SSE 17:52:42 67° ENE 17:58:12 10° NNW
Sich 1 Rocket 4.2 17:48:55 10° SSE 17:53:00 34° E 17:53:28 33° ENE
Cosmos 2082 Rocket 2.1 17:47:28 10° NNW 17:53:07 84° ENE 17:58:45 10° SSE
PSLV R/B 3.4 17:49:53 10° SSE 17:53:49 52° ENE 17:57:45 10° N
Cosmos 2026 Rocket 4.3 17:51:45 10° N 17:57:27 40° ENE 18:03:10 10° SE
Cosmos 1072 Rocket 4.4 17:51:56 10° S 17:57:59 65° E 18:04:02 10° NNE
Cosmos 2278 Rocket 2.1 17:52:42 10° SSW 17:58:22 82° ESE 18:02:47 17° NNE
NOAA 6 4.1 17:55:37 10° SE 18:00:36 51° ENE 18:05:34 10° N
BREEZE-M DEB (TANK) 3.5 17:58:27 10° SW 18:01:15 50° SSE 18:03:16 32° E
Aureole 3 Rocket 2.2 17:58:25 10° SSW 18:01:26 79° WNW 18:03:12 24° N
BREEZE-M DEB (TANK) 2.9 17:59:32 10° WSW 18:02:08 74° SSE 18:04:09 34° ENE
SL-16 R/B 4.1 17:59:43 10° N 18:05:15 34° WNW 18:10:45 10° WSW
Geosat 4.0 18:04:11 30° ESE 18:06:28 55° NE 18:11:22 10° NNW
Cosmos 2251 Rocket 3.4 18:03:56 10° SSW 18:09:12 75° ESE 18:12:38 23° NNE
YAOGAN 1 2.4 18:07:25 10° SSE 18:11:40 82° ENE 18:15:57 10° NNW
Cosmos 371 Rocket 3.5 18:08:16 10° S 18:12:49 44° ESE 18:12:52 44° ESE
Cosmos 304 Rocket 3.9 18:09:23 10° S 18:13:53 47° ESE 18:13:57 47° ESE
Cosmos 841 Rocket 3.4 18:08:55 10° NNW 18:14:11 68° ENE 18:17:15 25° SE
SJ 16-02 1.2 18:11:12 10° S 18:15:26 59° ESE 18:15:42 58° E
SL-19 R/B 4.0 18:10:42 10° SSE 18:15:55 87° ENE 18:21:12 10° NNW
Nadezhda 4 Rocket 4.0 18:13:18 10° N 18:19:39 88° WSW 18:25:53 10° S
CZ-4C R/B 3.8 18:15:30 10° WNW 18:19:51 25° N 18:22:36 19° NNE
ATLAS CENTAUR R/B 3.6 18:19:17 10° NNW 18:20:06 11° NNW 18:20:45 10° N
Cosmos 1862 3.4 18:18:26 10° NNW 18:22:03 64° W 18:25:38 10° S
Resurs 1-3 3.5 18:19:21 10° SSE 18:23:40 82° W 18:27:59 10° NNW
ATLAS 2AS CENTAUR R/B 2.9 18:17:23 10° NW 18:23:58 48° NNE 18:25:35 41° ENE
COSMOS 2406 3.1 18:20:11 10° NNW 18:25:54 84° ENE 18:29:07 27° SSE
Cosmos 1627 Rocket 4.4 18:22:00 10° N 18:28:05 62° ENE 18:34:12 10° SSE
Cosmos 1656 Rocket 4.2 18:24:25 10° S 18:28:32 38° SE 18:28:32 38° SE
Cosmos 2195 Rocket 4.4 18:27:11 10° N 18:33:32 81° E 18:39:53 10° SSE
Cosmos 1536 Rocket 4.2 18:29:47 10° NNW 18:34:08 55° W 18:38:25 10° S
Okean 2 Rocket 3.0 18:32:24 10° SSW 18:36:48 80° WNW 18:37:52 51° N
Cosmos 1190 Rocket 4.1 18:34:50 10° SSW 18:40:07 75° WNW 18:42:26 35° NNE
Cosmos 2344 3.8 18:34:19 10° NW 18:42:08 81° NE 18:47:32 31° SE
Cosmos 676 Rocket 3.8 18:37:43 10° SSW 18:43:00 76° ESE 18:43:16 74° E
Resurs 01 Rocket 3.0 18:46:22 28° N 18:46:22 28° N 18:48:33 10° N
Meteor 2-3 Rocket 3.6 18:39:42 10° NNW 18:45:28 89° WSW 18:49:59 16° S
Cosmos 2297 Rocket 4.3 18:46:48 10° N 18:48:17 12° NNE 18:48:17 12° NNE
ISS -1.6 18:48:26 10° W 18:50:07 27° W 18:50:07 27° W
Cosmos 1954 Rocket 4.1 18:47:49 10° SSW 18:53:05 72° WNW 18:54:18 52° N
COSMO-SKYMED 1 3.3 18:57:48 47° WNW 18:57:55 48° WNW 19:01:53 10° SW
USA 281 3.0 19:02:00 69° ESE 19:02:41 76° ENE 19:09:17 10° NNW
Cosmos 1943 Rocket 4.0 19:29:12 10° W 19:33:53 26° NW 19:35:40 22° NNW
Cosmos 2278 Rocket 4.0 19:38:29 10° W 19:43:07 25° NW 19:44:37 22° NNW
SJ 16-02 4.0 19:50:43 10° W 19:52:17 16° W 19:52:17 16° W
CZ-4C R/B 4.3 20:04:51 10° NW 20:07:32 22° NNW 20:07:32 22° NNW
ATLAS 2AS CENTAUR R/B 3.7 20:08:27 10° NW 20:13:01 42° WNW 20:13:01 42° WNW
